Fortuna, CA

7:59 PM PDT on October 22, 2019 (GMT -0700)
Rohnerville

Weather History for KFOT - September, 2019

Change the Weather History Date:

Friday, September 20, 2019

  Actual Average (KEKA) Record (KEKA)
Temperature  
Mean Temperature 61 °F -  
Max Temperature 71 °F 63 °F 86 °F (1983)
Min Temperature 51 °F 51 °F 42 °F (1924)
Degree Days  
Heating Degree Days 4    
Growing Degree Days 11 (Base 50)    
Moisture  
Dew Point 54 °F    
Average Humidity 82    
Maximum Humidity 100    
Minimum Humidity 50    
Precipitation  
Precipitation 0.00 in - - ()
Sea Level Pressure  
Sea Level Pressure 30.05 in    
Wind  
Wind Speed 6 mph ()    
Max Wind Speed 16 mph    
Max Gust Speed 23 mph    
Visibility 10.0 miles    
Events      
Averages and records for this station are not official NWS values.
T = Trace of Precipitation, MM = Missing Value Source: Averaged Metar Reports

Daily Weather History Graph

Daily Weather History Graph

Search for Another Location

Airport or City:

Astronomy

Sep. 20, 2019 Rise Set
Actual Time 7:02 AM PDT 7:17 PM PDT
Civil Twilight 6:34 AM PDT 7:44 PM PDT
Nautical Twilight 6:02 AM PDT 8:16 PM PDT
Astronomical Twilight 5:29 AM PDT 8:48 PM PDT
Moon 11:09 PM PDT (9/20) 1:14 PM PDT (9/20)
Length of Visible Light 13h 09m
Length of Day
12h 15m
Waning Gibbous, 64% of the Moon is Illuminated
Sep 20
Waning Gibbous
Sep 21
Last Quarter
Sep 28
New
Oct 5
First Quarter
Oct 13
Full

Hourly Weather History & Observations

Time (PDT) Temp. Dew Point Humidity Pressure Visibility Wind Dir Wind Speed Gust Speed Precip Events Conditions
12:15 AM 57.2 °F 55.4 °F 94% 30.04 in 9.0 mi SE 3.5 mph - N/A   Overcast
12:35 AM 57.2 °F 55.4 °F 94% 30.04 in 10.0 mi East 3.5 mph - N/A   Overcast
12:55 AM 57.2 °F 55.4 °F 94% 30.04 in 10.0 mi ESE 3.5 mph - N/A   Mostly Cloudy
1:15 AM 55.4 °F 53.6 °F 94% 30.04 in 10.0 mi ESE 3.5 mph - N/A   Mostly Cloudy
1:35 AM 57.2 °F 55.4 °F 94% 30.04 in 10.0 mi ESE 3.5 mph - N/A   Overcast
1:55 AM 57.2 °F 55.4 °F 94% 30.04 in 10.0 mi ESE 3.5 mph - N/A   Overcast
2:15 AM 57.2 °F 55.4 °F 94% 30.04 in 10.0 mi ESE 4.6 mph - N/A   Overcast
2:35 AM 55.4 °F 53.6 °F 94% 30.04 in 10.0 mi ESE 4.6 mph - N/A   Mostly Cloudy
2:55 AM 55.4 °F 53.6 °F 94% 30.04 in 10.0 mi Calm Calm - N/A   Mostly Cloudy
3:15 AM 55.4 °F 53.6 °F 94% 30.04 in 10.0 mi Calm Calm - N/A   Mostly Cloudy
3:35 AM 55.4 °F 53.6 °F 94% 30.04 in 10.0 mi South 3.5 mph - N/A   Partly Cloudy
3:55 AM 55.4 °F 53.6 °F 94% 30.03 in 10.0 mi SE 4.6 mph - N/A   Mostly Cloudy
4:15 AM 55.4 °F 53.6 °F 94% 30.03 in 10.0 mi SE 5.8 mph - N/A   Overcast
4:35 AM 55.4 °F 53.6 °F 94% 30.03 in 10.0 mi SSE 3.5 mph - N/A   Mostly Cloudy
4:55 AM 53.6 °F 53.6 °F 100% 30.03 in 10.0 mi SE 4.6 mph - N/A   Mostly Cloudy
5:15 AM 53.6 °F 51.8 °F 94% 30.03 in 10.0 mi SSE 4.6 mph - N/A   Mostly Cloudy
5:35 AM 53.6 °F 51.8 °F 94% 30.03 in 10.0 mi SSE 5.8 mph - N/A   Scattered Clouds
5:55 AM 53.6 °F 53.6 °F 100% 30.04 in 10.0 mi SSE 3.5 mph - N/A   Mostly Cloudy
6:15 AM 53.6 °F 51.8 °F 94% 30.04 in 10.0 mi SSE 4.6 mph - N/A   Mostly Cloudy
6:35 AM 51.8 °F 50.0 °F 94% 30.04 in 10.0 mi SE 3.5 mph - N/A   Mostly Cloudy
6:55 AM 53.6 °F 51.8 °F 94% 30.05 in 10.0 mi South 4.6 mph - N/A   Overcast
7:15 AM 53.6 °F 51.8 °F 94% 30.05 in 10.0 mi SSE 5.8 mph - N/A   Mostly Cloudy
7:35 AM 51.8 °F 51.8 °F 100% 30.05 in 10.0 mi SE 5.8 mph - N/A   Scattered Clouds
7:55 AM 53.6 °F 51.8 °F 94% 30.06 in 10.0 mi SE 5.8 mph - N/A   Clear
8:15 AM 53.6 °F 53.6 °F 100% 30.06 in 10.0 mi SSE 4.6 mph - N/A   Clear
8:35 AM 55.4 °F 53.6 °F 94% 30.06 in 10.0 mi Calm Calm - N/A   Clear
8:55 AM 55.4 °F 53.6 °F 94% 30.06 in 10.0 mi Calm Calm - N/A   Clear
9:15 AM 57.2 °F 55.4 °F 94% 30.07 in 10.0 mi NNW 3.5 mph - N/A   Clear
9:35 AM 59.0 °F 55.4 °F 88% 30.07 in 10.0 mi WNW 3.5 mph - N/A   Clear
9:55 AM 59.0 °F 55.4 °F 88% 30.07 in 10.0 mi WNW 3.5 mph - N/A   Partly Cloudy
10:15 AM 60.8 °F 55.4 °F 82% 30.07 in 10.0 mi WNW 4.6 mph - N/A   Partly Cloudy
10:35 AM 62.6 °F 55.4 °F 77% 30.07 in 10.0 mi WNW 6.9 mph - N/A   Partly Cloudy
10:55 AM 64.4 °F 55.4 °F 73% 30.07 in 10.0 mi WNW 8.1 mph - N/A   Clear
11:15 AM 64.4 °F 55.4 °F 73% 30.06 in 10.0 mi WNW 9.2 mph - N/A   Clear
11:35 AM 66.2 °F 55.4 °F 68% 30.07 in 10.0 mi West 12.7 mph - N/A   Partly Cloudy
11:55 AM 68.0 °F 53.6 °F 60% 30.07 in 10.0 mi WNW 13.8 mph - N/A   Partly Cloudy
12:15 PM 68.0 °F 53.6 °F 60% 30.07 in 10.0 mi West 13.8 mph 20.7 mph N/A   Scattered Clouds
12:35 PM 68.0 °F 53.6 °F 60% 30.06 in 10.0 mi West 15.0 mph - N/A   Partly Cloudy
12:55 PM 71.6 °F 55.4 °F 57% 30.06 in 10.0 mi WNW 13.8 mph - N/A   Clear
1:15 PM 71.6 °F 53.6 °F 53% 30.06 in 10.0 mi WNW 11.5 mph - N/A   Partly Cloudy
1:35 PM 71.6 °F 55.4 °F 57% 30.07 in 10.0 mi NW 11.5 mph 19.6 mph N/A   Clear
1:55 PM 71.6 °F 51.8 °F 50% 30.07 in 10.0 mi WNW 11.5 mph - N/A   Clear
2:15 PM 71.6 °F 51.8 °F 50% 30.06 in 10.0 mi NW 12.7 mph 19.6 mph N/A   Clear
2:35 PM 71.6 °F 53.6 °F 53% 30.06 in 10.0 mi NW 13.8 mph 19.6 mph N/A   Clear
2:55 PM 71.6 °F 53.6 °F 53% 30.06 in 10.0 mi NW 15.0 mph 19.6 mph N/A   Clear
3:15 PM 71.6 °F 53.6 °F 53% 30.06 in 10.0 mi WNW 12.7 mph 18.4 mph N/A   Clear
3:35 PM 69.8 °F 53.6 °F 56% 30.06 in 10.0 mi NNW 13.8 mph 20.7 mph N/A   Clear
3:55 PM 68.0 °F 53.6 °F 60% 30.06 in 10.0 mi NNW 15.0 mph - N/A   Clear
4:15 PM 68.0 °F 55.4 °F 64% 30.06 in 10.0 mi NW 15.0 mph - N/A   Clear
4:35 PM 68.0 °F 55.4 °F 64% 30.06 in 10.0 mi NW 16.1 mph 21.9 mph N/A   Clear
4:55 PM 68.0 °F 55.4 °F 64% 30.05 in 10.0 mi NW 13.8 mph 23.0 mph N/A   Clear
5:15 PM 66.2 °F 55.4 °F 68% 30.05 in 10.0 mi WNW 15.0 mph 20.7 mph N/A   Clear
5:35 PM 66.2 °F 55.4 °F 68% 30.05 in 10.0 mi WNW 15.0 mph 20.7 mph N/A   Partly Cloudy
5:55 PM 64.4 °F 57.2 °F 77% 30.05 in 10.0 mi WNW 13.8 mph 19.6 mph N/A   Partly Cloudy
6:15 PM 64.4 °F 57.2 °F 77% 30.05 in 10.0 mi NW 13.8 mph - N/A   Clear
6:35 PM 62.6 °F 55.4 °F 77% 30.05 in 10.0 mi WNW 12.7 mph 20.7 mph N/A   Clear
6:55 PM 60.8 °F 55.4 °F 82% 30.05 in 10.0 mi WNW 12.7 mph - N/A   Partly Cloudy
7:15 PM 59.0 °F 55.4 °F 88% 30.04 in 10.0 mi West 11.5 mph - N/A   Clear
7:35 PM 59.0 °F 55.4 °F 88% 30.05 in 10.0 mi West 6.9 mph - N/A   Partly Cloudy
7:55 PM 59.0 °F 55.4 °F 88% 30.05 in 10.0 mi West 9.2 mph - N/A   Scattered Clouds
8:15 PM 59.0 °F 55.4 °F 88% 30.05 in 10.0 mi West 8.1 mph - N/A   Mostly Cloudy
8:35 PM 59.0 °F 55.4 °F 88% 30.05 in 10.0 mi WNW 8.1 mph - N/A   Mostly Cloudy
8:55 PM 59.0 °F 55.4 °F 88% 30.05 in 10.0 mi WNW 5.8 mph - N/A   Scattered Clouds
9:15 PM 59.0 °F 55.4 °F 88% 30.05 in 10.0 mi West 5.8 mph - N/A   Mostly Cloudy
9:35 PM 59.0 °F 55.4 °F 88% 30.05 in 10.0 mi West 5.8 mph - N/A   Overcast
9:55 PM 59.0 °F 55.4 °F 88% 30.05 in 10.0 mi West 5.8 mph - N/A   Overcast
10:15 PM 59.0 °F 55.4 °F 88% 30.05 in 10.0 mi WNW 3.5 mph - N/A   Overcast
10:35 PM 59.0 °F 55.4 °F 88% 30.04 in 10.0 mi Calm Calm - N/A   Overcast
10:55 PM 59.0 °F 55.4 °F 88% 30.04 in 10.0 mi SE 3.5 mph - N/A   Overcast
11:15 PM 59.0 °F 55.4 °F 88% 30.04 in 10.0 mi SE 3.5 mph - N/A   Overcast
11:35 PM 57.2 °F 55.4 °F 94% 30.04 in 10.0 mi ESE 3.5 mph - N/A   Overcast
11:55 PM 59.0 °F 55.4 °F 88% 30.04 in 10.0 mi SE 4.6 mph - N/A   Overcast